This is the latest recevied weather packets stored in our database for station/object W0SS-13. If no packets are shown the sender has not sent any weather packets the latest 1 day(s).
| Time | Temp. | Humidity | Pressure | Rain* | Wind** | Luminosity | Snow |
|---|---|---|---|---|---|---|---|
| 1836274790 | 19.44° C | 78% | 1017.8 hPa | 0 mm | 0 m/s | 0 W/m² | - |
| 1836274489 | 19.44° C | 78% | 1017.7 hPa | 0 mm | 0 m/s | 0 W/m² | - |
| 1836274342 | 19.44° C | 79% | 1017.9 hPa | 0 mm | 0 m/s | 0 W/m² | - |
| 1836274186 | 20° C | 77% | 1017.9 hPa | 0 mm | 0 m/s | 0 W/m² | - |
| 1836273880 | 20° C | 75% | 1017.8 hPa | 0 mm | 1.79 m/s, 70° | 0 W/m² | - |
| 1778050897 | 7.22° C | 82% | 1015.6 hPa | 0 mm | 1.34 m/s, 127° | 0 W/m² | - |
| 1778050595 | 7.22° C | 83% | 1015.9 hPa | 0 mm | 0 m/s | 0 W/m² | - |
| 1778050291 | 7.78° C | 83% | 1015.8 hPa | 0 mm | 0 m/s | 0 W/m² | - |
| 1778049989 | 7.78° C | 82% | 1016 hPa | 0 mm | 0.45 m/s, 159° | 0 W/m² | - |
| 1778049684 | 7.78° C | 80% | 1016.2 hPa | 0 mm | 0.89 m/s, 56° | 0 W/m² | - |
| 1778049382 | 7.78° C | 79% | 1016.6 hPa | 0 mm | 0.89 m/s, 69° | 0 W/m² | - |
| 1778049079 | 7.78° C | 78% | 1016.6 hPa | 0 mm | 0.45 m/s, 1° | 0 W/m² | - |
| 1778048778 | 7.78° C | 78% | 1016.6 hPa | 0 mm | 1.34 m/s, 6° | 0 W/m² | - |
| 1778048474 | 7.78° C | 77% | 1016.5 hPa | 0 mm | 2.24 m/s, 32° | 0 W/m² | - |
| 1778048169 | 8.33° C | 77% | 1016.7 hPa | 0 mm | 1.34 m/s, 352° | 0 W/m² | - |
| 1778047868 | 8.33° C | 77% | 1016.7 hPa | 0 mm | 1.79 m/s, 352° | 0 W/m² | - |
| 1778047574 | 8.33° C | 76% | 1016.7 hPa | 0 mm | 2.24 m/s, 343° | 0 W/m² | - |
| 1778047257 | 8.33° C | 76% | 1016.9 hPa | 0 mm | 2.68 m/s, 0° | 0 W/m² | - |
| 1778046955 | 8.33° C | 75% | 1016.7 hPa | 0 mm | 1.79 m/s, 12° | 0 W/m² | - |
| 1778046651 | 8.89° C | 74% | 1016.8 hPa | 0 mm | 4.02 m/s, 8° | 0 W/m² | - |
| 1778046348 | 8.89° C | 73% | 1016.7 hPa | 0 mm | 5.36 m/s, 333° | 0 W/m² | - |
| 1778046043 | 8.89° C | 74% | 1016.6 hPa | 1.78 mm | 1.79 m/s, 303° | 0 W/m² | - |
| 1778045742 | 8.33° C | 74% | 1016.3 hPa | 1.78 mm | 3.13 m/s, 351° | 0 W/m² | - |
| 1778045440 | 8.33° C | 75% | 1016.4 hPa | 0 mm | 1.79 m/s, 15° | 0 W/m² | - |
| 1778045138 | 8.89° C | 74% | 1016.2 hPa | 0 mm | 1.34 m/s, 14° | 0 W/m² | - |
* Rain latest hour (hover to see other rain measurements)
** Current wind speed in m/s (hover to see current wind gust speed)